owner,sensor,date,latitude,longitude,vertical_datum,wind_speed,wind_to_direction,wind_speed_of_gust,qcFlag 
COMPS,ioos:station:USF.COMPS:C10:1,2017-02-01T00:05:00Z,27.1690,-82.9260,3.0,2.27,346.84,2.98,'1111122,1111122,1111122' 
COMPS,ioos:station:USF.COMPS:C10:1,2017-02-01T00:35:00Z,27.1690,-82.9260,3.0,2.34,358.62,3.17,'1111122,1111122,1111122' 
COMPS,ioos:station:USF.COMPS:C10:1,2017-02-01T01:05:00Z,27.1690,-82.9260,3.0,1.77,354.4,2.48,'1111122,1111122,1111122' 
COMPS,ioos:station:USF.COMPS:C10:1,2017-02-01T01:35:00Z,27.1690,-82.9260,3.0,1.69,354.19,2.34,'1111122,1111122,1111122' 
COMPS,ioos:station:USF.COMPS:C10:1,2017-02-01T02:05:00Z,27.1690,-82.9260,3.0,1.94,349.99,2.48,'1111122,1111122,1111122' 
COMPS,ioos:station:USF.COMPS:C10:1,2017-02-01T02:35:00Z,27.1690,-82.9260,3.0,2.46,8.12,2.93,'1111122,1111122,1111122' 
COMPS,ioos:station:USF.COMPS:C10:1,2017-02-01T03:05:00Z,27.1690,-82.9260,3.0,3.02,23.74,3.53,'1111122,1111122,1111122' 
COMPS,ioos:station:USF.COMPS:C10:1,2017-02-01T03:35:00Z,27.1690,-82.9260,3.0,3.41,29.27,4.15,'1111122,1111122,1111122' 
COMPS,ioos:station:USF.COMPS:C10:1,2017-02-01T04:05:00Z,27.1690,-82.9260,3.0,3.43,35.08,4.22,'1111122,1111122,1111122' 
COMPS,ioos:station:USF.COMPS:C10:1,2017-02-01T04:35:00Z,27.1690,-82.9260,3.0,3.13,38.1,3.75,'1111122,1111122,1111122' 
COMPS,ioos:station:USF.COMPS:C10:1,2017-02-01T05:05:00Z,27.1690,-82.9260,3.0,2.93,31.65,3.83,'1111122,1111122,1111122' 
COMPS,ioos:station:USF.COMPS:C10:1,2017-02-01T05:35:00Z,27.1690,-82.9260,3.0,2.94,42.38,3.8,'1111122,1111122,1111122' 
COMPS,ioos:station:USF.COMPS:C10:1,2017-02-01T06:05:00Z,27.1690,-82.9260,3.0,2.41,66.76,3.22,'1111122,1111122,1111122' 
COMPS,ioos:station:USF.COMPS:C10:1,2017-02-01T06:35:00Z,27.1690,-82.9260,3.0,2.83,70.97,4.01,'1111122,1111122,1111122' 
COMPS,ioos:station:USF.COMPS:C10:1,2017-02-01T07:05:00Z,27.1690,-82.9260,3.0,3.03,75.99,3.8,'1111122,1111122,1111122' 
COMPS,ioos:station:USF.COMPS:C10:1,2017-02-01T07:35:00Z,27.1690,-82.9260,3.0,2.78,88.32,3.5,'1111122,1111122,1111122' 
COMPS,ioos:station:USF.COMPS:C10:1,2017-02-01T11:05:00Z,27.1690,-82.9260,3.0,4.32,93.07,5.35,'1111122,1111122,1111122' 
COMPS,ioos:station:USF.COMPS:C10:1,2017-02-01T11:35:00Z,27.1690,-82.9260,3.0,4.85,101.62,5.92,'1111122,1111122,1111122' 
COMPS,ioos:station:USF.COMPS:C10:1,2017-02-01T12:05:00Z,27.1690,-82.9260,3.0,5.02,110.54,6.15,'1111122,1111122,1111122' 
COMPS,ioos:station:USF.COMPS:C10:1,2017-02-01T12:35:00Z,27.1690,-82.9260,3.0,4.72,106.01,5.7,'1111122,1111122,1111122' 
COMPS,ioos:station:USF.COMPS:C10:1,2017-02-01T16:05:00Z,27.1690,-82.9260,3.0,2.65,104.23,3.32,'1111122,1111122,1111122' 
COMPS,ioos:station:USF.COMPS:C10:1,2017-02-01T16:35:00Z,27.1690,-82.9260,3.0,2.67,102.33,3.39,'1111122,1111122,1111122' 
COMPS,ioos:station:USF.COMPS:C10:1,2017-02-01T18:05:00Z,27.1690,-82.9260,3.0,1.18,118.6,1.79,'1111122,1111122,1111122' 
COMPS,ioos:station:USF.COMPS:C10:1,2017-02-01T18:35:00Z,27.1690,-82.9260,3.0,0.92,80.1,1.53,'1111122,1111122,1111122' 
COMPS,ioos:station:USF.COMPS:C10:1,2017-02-01T19:05:00Z,27.1690,-82.9260,3.0,1.04,10.58,1.59,'1111122,1111122,1111122' 
COMPS,ioos:station:USF.COMPS:C10:1,2017-02-01T19:35:00Z,27.1690,-82.9260,3.0,2.23,326.79,3.12,'1111122,1111122,1111122' 
COMPS,ioos:station:USF.COMPS:C10:1,2017-02-01T20:05:00Z,27.1690,-82.9260,3.0,3.04,321.8,3.52,'1111122,1111122,1111122' 
COMPS,ioos:station:USF.COMPS:C10:1,2017-02-01T20:35:00Z,27.1690,-82.9260,3.0,2.82,333.1,3.4,'1111122,1111122,1111122' 
COMPS,ioos:station:USF.COMPS:C10:1,2017-02-01T21:05:00Z,27.1690,-82.9260,3.0,3.57,318.99,4.33,'1111122,1111122,1111122' 
COMPS,ioos:station:USF.COMPS:C10:1,2017-02-01T21:35:00Z,27.1690,-82.9260,3.0,2.99,325.7,3.68,'1111122,1111122,1111122' 
COMPS,ioos:station:USF.COMPS:C10:1,2017-02-01T22:05:00Z,27.1690,-82.9260,3.0,3.59,339.03,4.18,'1111122,1111122,1111122' 
COMPS,ioos:station:USF.COMPS:C10:1,2017-02-01T22:35:00Z,27.1690,-82.9260,3.0,3.8,339.35,4.73,'1111122,1111122,1111122' 
COMPS,ioos:station:USF.COMPS:C10:1,2017-02-02T00:05:00Z,27.1690,-82.9260,3.0,3.28,355.17,3.9,'1111122,1111122,1111122' 
COMPS,ioos:station:USF.COMPS:C10:1,2017-02-02T00:35:00Z,27.1690,-82.9260,3.0,3.01,352.63,3.58,'1111122,1111122,1111122' 
COMPS,ioos:station:USF.COMPS:C10:1,2017-02-02T01:05:00Z,27.1690,-82.9260,3.0,2.88,356.54,3.39,'1111122,1111122,1111122' 
COMPS,ioos:station:USF.COMPS:C10:1,2017-02-02T01:35:00Z,27.1690,-82.9260,3.0,3.06,358.41,3.5,'1111122,1111122,1111122' 
COMPS,ioos:station:USF.COMPS:C10:1,2017-02-02T02:05:00Z,27.1690,-82.9260,3.0,2.41,346.41,2.9,'1111122,1111122,1111122' 
COMPS,ioos:station:USF.COMPS:C10:1,2017-02-02T02:35:00Z,27.1690,-82.9260,3.0,2.75,0.85,3.21,'1111122,1111122,1111122' 
COMPS,ioos:station:USF.COMPS:C10:1,2017-02-02T03:05:00Z,27.1690,-82.9260,3.0,2.68,12.51,3.12,'1111122,1111122,1111122' 
COMPS,ioos:station:USF.COMPS:C10:1,2017-02-02T03:35:00Z,27.1690,-82.9260,3.0,2.53,16.86,3.06,'1111122,1111122,1111122' 
COMPS,ioos:station:USF.COMPS:C10:1,2017-02-02T08:05:00Z,27.1690,-82.9260,3.0,4.65,57.95,5.76,'1111122,1111122,1111122' 
COMPS,ioos:station:USF.COMPS:C10:1,2017-02-02T08:35:00Z,27.1690,-82.9260,3.0,5.07,54.26,6.37,'1111122,1111122,1111122' 
COMPS,ioos:station:USF.COMPS:C10:1,2017-02-02T10:05:00Z,27.1690,-82.9260,3.0,5.27,46.71,6.31,'1111122,1111122,1111122' 
COMPS,ioos:station:USF.COMPS:C10:1,2017-02-02T10:35:00Z,27.1690,-82.9260,3.0,4.72,40.85,5.7,'1111122,1111122,1111122' 
COMPS,ioos:station:USF.COMPS:C10:1,2017-02-02T11:05:00Z,27.1690,-82.9260,3.0,3.65,31.56,4.33,'1111122,1111122,1111122' 
COMPS,ioos:station:USF.COMPS:C10:1,2017-02-02T11:35:00Z,27.1690,-82.9260,3.0,3.5,51.48,4.34,'1111122,1111122,1111122' 
COMPS,ioos:station:USF.COMPS:C10:1,2017-02-02T12:05:00Z,27.1690,-82.9260,3.0,3.53,49.82,4.18,'1111122,1111122,1111122' 
COMPS,ioos:station:USF.COMPS:C10:1,2017-02-02T12:35:00Z,27.1690,-82.9260,3.0,3.85,55.83,4.76,'1111122,1111122,1111122' 
COMPS,ioos:station:USF.COMPS:C10:1,2017-02-02T14:05:00Z,27.1690,-82.9260,3.0,3.22,70.63,3.81,'1111122,1111122,1111122' 
COMPS,ioos:station:USF.COMPS:C10:1,2017-02-02T14:35:00Z,27.1690,-82.9260,3.0,2.71,78.8,3.27,'1111122,1111122,1111122' 
COMPS,ioos:station:USF.COMPS:C10:1,2017-02-02T15:05:00Z,27.1690,-82.9260,3.0,2.04,90.05,2.55,'1111122,1111122,1111122' 
COMPS,ioos:station:USF.COMPS:C10:1,2017-02-02T15:35:00Z,27.1690,-82.9260,3.0,1.27,95.05,1.91,'1111122,1111122,1111122' 
COMPS,ioos:station:USF.COMPS:C10:1,2017-02-02T17:05:00Z,27.1690,-82.9260,3.0,0.78,357.93,1.43,'1111122,1111122,1111122' 
COMPS,ioos:station:USF.COMPS:C10:1,2017-02-02T17:35:00Z,27.1690,-82.9260,3.0,1.55,6.44,2.24,'1111122,1111122,1111122' 
COMPS,ioos:station:USF.COMPS:C10:1,2017-02-02T18:05:00Z,27.1690,-82.9260,3.0,1.32,18.89,1.86,'1111122,1111122,1111122' 
COMPS,ioos:station:USF.COMPS:C10:1,2017-02-02T18:35:00Z,27.1690,-82.9260,3.0,1.49,351.3,2.03,'1111122,1111122,1111122' 
COMPS,ioos:station:USF.COMPS:C10:1,2017-02-02T19:05:00Z,27.1690,-82.9260,3.0,1.85,353.42,2.41,'1111122,1111122,1111122' 
COMPS,ioos:station:USF.COMPS:C10:1,2017-02-02T19:35:00Z,27.1690,-82.9260,3.0,1.86,339.59,2.48,'1111122,1111122,1111122' 
COMPS,ioos:station:USF.COMPS:C10:1,2017-02-02T20:05:00Z,27.1690,-82.9260,3.0,3.18,335.32,3.94,'1111122,1111122,1111122' 
COMPS,ioos:station:USF.COMPS:C10:1,2017-02-02T20:35:00Z,27.1690,-82.9260,3.0,2.64,339.01,3.42,'1111122,1111122,1111122' 
COMPS,ioos:station:USF.COMPS:C10:1,2017-02-02T21:05:00Z,27.1690,-82.9260,3.0,2.71,326.65,3.36,'1111122,1111122,1111122' 
COMPS,ioos:station:USF.COMPS:C10:1,2017-02-02T21:35:00Z,27.1690,-82.9260,3.0,2.86,325.91,3.67,'1111122,1111122,1111122' 
COMPS,ioos:station:USF.COMPS:C10:1,2017-02-02T22:05:00Z,27.1690,-82.9260,3.0,2.61,338.48,3.15,'1111122,1111122,1111122' 
COMPS,ioos:station:USF.COMPS:C10:1,2017-02-02T22:35:00Z,27.1690,-82.9260,3.0,3.11,339.49,3.8,'1111122,1111122,1111122' 
COMPS,ioos:station:USF.COMPS:C10:1,2017-02-02T23:05:00Z,27.1690,-82.9260,3.0,3.47,347.99,4.12,'1111122,1111122,1111122' 
COMPS,ioos:station:USF.COMPS:C10:1,2017-02-02T23:35:00Z,27.1690,-82.9260,3.0,4.97,338.53,5.92,'1111122,1111122,1111122' 
COMPS,ioos:station:USF.COMPS:C10:1,2017-02-03T00:05:00Z,27.1690,-82.9260,3.0,5.12,339.34,6.07,'1111122,1111122,1111122' 
COMPS,ioos:station:USF.COMPS:C10:1,2017-02-03T00:35:00Z,27.1690,-82.9260,3.0,3.95,353.81,4.97,'1111122,1111122,1111122' 
COMPS,ioos:station:USF.COMPS:C10:1,2017-02-03T01:05:00Z,27.1690,-82.9260,3.0,3.92,347.05,4.62,'1111122,1111122,1111122' 
COMPS,ioos:station:USF.COMPS:C10:1,2017-02-03T01:35:00Z,27.1690,-82.9260,3.0,4.43,348.37,5.33,'1111122,1111122,1111122' 
COMPS,ioos:station:USF.COMPS:C10:1,2017-02-03T02:05:00Z,27.1690,-82.9260,3.0,5.47,348.51,6.4,'1111122,1111122,1111122' 
COMPS,ioos:station:USF.COMPS:C10:1,2017-02-03T02:35:00Z,27.1690,-82.9260,3.0,4.91,2.73,6.03,'1111122,1111122,1111122' 
COMPS,ioos:station:USF.COMPS:C10:1,2017-02-03T03:05:00Z,27.1690,-82.9260,3.0,3.89,14.71,4.96,'1111122,1111122,1111122' 
COMPS,ioos:station:USF.COMPS:C10:1,2017-02-03T03:35:00Z,27.1690,-82.9260,3.0,3.64,22.37,4.79,'1111122,1111122,1111122' 
COMPS,ioos:station:USF.COMPS:C10:1,2017-02-03T04:05:00Z,27.1690,-82.9260,3.0,3.81,19.8,4.53,'1111122,1111122,1111122' 
COMPS,ioos:station:USF.COMPS:C10:1,2017-02-03T04:35:00Z,27.1690,-82.9260,3.0,3.61,17.67,4.15,'1111122,1111122,1111122' 
COMPS,ioos:station:USF.COMPS:C10:1,2017-02-03T06:05:00Z,27.1690,-82.9260,3.0,4.02,26.41,4.95,'1111122,1111122,1111122' 
COMPS,ioos:station:USF.COMPS:C10:1,2017-02-03T06:35:00Z,27.1690,-82.9260,3.0,4.7,21.1,5.58,'1111122,1111122,1111122' 
COMPS,ioos:station:USF.COMPS:C10:1,2017-02-03T07:05:00Z,27.1690,-82.9260,3.0,5.31,31.83,6.62,'1111122,1111122,1111122' 
COMPS,ioos:station:USF.COMPS:C10:1,2017-02-03T07:35:00Z,27.1690,-82.9260,3.0,5.68,32.97,6.97,'1111122,1111122,1111122' 
COMPS,ioos:station:USF.COMPS:C10:1,2017-02-03T11:05:00Z,27.1690,-82.9260,3.0,4.45,37.67,5.51,'1111122,1111122,1111122' 
COMPS,ioos:station:USF.COMPS:C10:1,2017-02-03T11:35:00Z,27.1690,-82.9260,3.0,4.15,29.42,4.8,'1111122,1111122,1111122' 
COMPS,ioos:station:USF.COMPS:C10:1,2017-02-03T13:05:00Z,27.1690,-82.9260,3.0,4.8,32.82,5.55,'1111122,1111122,1111122' 
COMPS,ioos:station:USF.COMPS:C10:1,2017-02-03T13:35:00Z,27.1690,-82.9260,3.0,4.47,39.3,5.38,'1111122,1111122,1111122' 
COMPS,ioos:station:USF.COMPS:C10:1,2017-02-03T17:05:00Z,27.1690,-82.9260,3.0,1.63,14.09,2.15,'1111122,1111122,1111122' 
COMPS,ioos:station:USF.COMPS:C10:1,2017-02-03T17:35:00Z,27.1690,-82.9260,3.0,2.6,351.49,3.12,'1111122,1111122,1111122' 
COMPS,ioos:station:USF.COMPS:C10:1,2017-02-03T18:05:00Z,27.1690,-82.9260,3.0,2.82,353.12,3.31,'1111122,1111122,1111122' 
COMPS,ioos:station:USF.COMPS:C10:1,2017-02-03T18:35:00Z,27.1690,-82.9260,3.0,4.31,345.21,4.94,'1111122,1111122,1111122' 
COMPS,ioos:station:USF.COMPS:C10:1,2017-02-03T19:05:00Z,27.1690,-82.9260,3.0,4.81,349.44,5.77,'1111122,1111122,1111122' 
COMPS,ioos:station:USF.COMPS:C10:1,2017-02-03T19:35:00Z,27.1690,-82.9260,3.0,6.02,346.36,7.23,'1111122,1111122,1111122' 
COMPS,ioos:station:USF.COMPS:C10:1,2017-02-03T21:05:00Z,27.1690,-82.9260,3.0,5.79,354.35,6.66,'1111122,1111122,1111122' 
COMPS,ioos:station:USF.COMPS:C10:1,2017-02-03T21:35:00Z,27.1690,-82.9260,3.0,5.16,355.5,6.31,'1111122,1111122,1111122' 
COMPS,ioos:station:USF.COMPS:C10:1,2017-02-03T22:05:00Z,27.1690,-82.9260,3.0,4.75,357.93,6.26,'1111122,1111122,1111122' 
COMPS,ioos:station:USF.COMPS:C10:1,2017-02-03T22:35:00Z,27.1690,-82.9260,3.0,5.86,356.77,7.04,'1111122,1111122,1111122' 
COMPS,ioos:station:USF.COMPS:C10:1,2017-02-04T00:05:00Z,27.1690,-82.9260,3.0,4.15,5.82,5.15,'1111122,1111122,1111122' 
COMPS,ioos:station:USF.COMPS:C10:1,2017-02-04T00:35:00Z,27.1690,-82.9260,3.0,3.95,355.01,4.61,'1111122,1111122,1111122' 
COMPS,ioos:station:USF.COMPS:C10:1,2017-02-04T01:05:00Z,27.1690,-82.9260,3.0,3.85,347.42,4.58,'1111122,1111122,1111122' 
COMPS,ioos:station:USF.COMPS:C10:1,2017-02-04T01:35:00Z,27.1690,-82.9260,3.0,3.01,354.95,3.92,'1111122,1111122,1111122' 
COMPS,ioos:station:USF.COMPS:C10:1,2017-02-04T02:05:00Z,27.1690,-82.9260,3.0,4.03,354.95,4.67,'1111122,1111122,1111122' 
COMPS,ioos:station:USF.COMPS:C10:1,2017-02-04T02:35:00Z,27.1690,-82.9260,3.0,3.69,1.51,4.66,'1111122,1111122,1111122' 
COMPS,ioos:station:USF.COMPS:C10:1,2017-02-04T03:05:00Z,27.1690,-82.9260,3.0,3.82,356.49,4.6,'1111122,1111122,1111122' 
COMPS,ioos:station:USF.COMPS:C10:1,2017-02-04T03:35:00Z,27.1690,-82.9260,3.0,3.77,349.15,4.42,'1111122,1111122,1111122' 
COMPS,ioos:station:USF.COMPS:C10:1,2017-02-04T04:05:00Z,27.1690,-82.9260,3.0,3.47,350.44,4.18,'1111122,1111122,1111122' 
COMPS,ioos:station:USF.COMPS:C10:1,2017-02-04T04:35:00Z,27.1690,-82.9260,3.0,2.84,350.77,3.59,'1111122,1111122,1111122' 
COMPS,ioos:station:USF.COMPS:C10:1,2017-02-04T05:05:00Z,27.1690,-82.9260,3.0,3.17,349.01,3.83,'1111122,1111122,1111122' 
COMPS,ioos:station:USF.COMPS:C10:1,2017-02-04T05:35:00Z,27.1690,-82.9260,3.0,2.23,352.1,2.99,'1111122,1111122,1111122' 
COMPS,ioos:station:USF.COMPS:C10:1,2017-02-04T06:05:00Z,27.1690,-82.9260,3.0,2.49,349.18,3.03,'1111122,1111122,1111122' 
COMPS,ioos:station:USF.COMPS:C10:1,2017-02-04T06:35:00Z,27.1690,-82.9260,3.0,3.06,344.68,3.46,'1111122,1111122,1111122' 
COMPS,ioos:station:USF.COMPS:C10:1,2017-02-04T07:05:00Z,27.1690,-82.9260,3.0,3.74,348.98,4.59,'1111122,1111122,1111122' 
COMPS,ioos:station:USF.COMPS:C10:1,2017-02-04T07:35:00Z,27.1690,-82.9260,3.0,4.18,343.46,5.21,'1111122,1111122,1111122' 
COMPS,ioos:station:USF.COMPS:C10:1,2017-02-04T08:05:00Z,27.1690,-82.9260,3.0,4.35,345.78,5.08,'1111122,1111122,1111122' 
COMPS,ioos:station:USF.COMPS:C10:1,2017-02-04T08:35:00Z,27.1690,-82.9260,3.0,4.36,340.52,5.29,'1111122,1111122,1111122' 
COMPS,ioos:station:USF.COMPS:C10:1,2017-02-04T09:05:00Z,27.1690,-82.9260,3.0,4.55,340.67,5.43,'1111122,1111122,1111122' 
COMPS,ioos:station:USF.COMPS:C10:1,2017-02-04T09:35:00Z,27.1690,-82.9260,3.0,5.77,338.23,7.02,'1111122,1111122,1111122' 
COMPS,ioos:station:USF.COMPS:C10:1,2017-02-04T10:05:00Z,27.1690,-82.9260,3.0,5.51,338.02,7.28,'1111122,1111122,1111122' 
COMPS,ioos:station:USF.COMPS:C10:1,2017-02-04T10:35:00Z,27.1690,-82.9260,3.0,7.91,352.28,9.94,'1111122,1111122,1111122' 
COMPS,ioos:station:USF.COMPS:C10:1,2017-02-04T12:05:00Z,27.1690,-82.9260,3.0,7.5,5.55,9.92,'1111122,1111122,1111122' 
COMPS,ioos:station:USF.COMPS:C10:1,2017-02-04T12:35:00Z,27.1690,-82.9260,3.0,7.78,13.54,10.0,'1111122,1111122,1111122' 
COMPS,ioos:station:USF.COMPS:C10:1,2017-02-04T15:05:00Z,27.1690,-82.9260,3.0,5.76,47.36,6.99,'1111122,1111122,1111122' 
COMPS,ioos:station:USF.COMPS:C10:1,2017-02-04T15:35:00Z,27.1690,-82.9260,3.0,6.02,58.37,8.12,'1111122,1111122,1111122' 
COMPS,ioos:station:USF.COMPS:C10:1,2017-02-04T22:05:00Z,27.1690,-82.9260,3.0,5.45,343.16,6.73,'1111122,1111122,1111122' 
COMPS,ioos:station:USF.COMPS:C10:1,2017-02-04T22:35:00Z,27.1690,-82.9260,3.0,5.49,345.42,6.75,'1111122,1111122,1111122' 
COMPS,ioos:station:USF.COMPS:C10:1,2017-02-04T23:05:00Z,27.1690,-82.9260,3.0,5.74,345.04,6.79,'1111122,1111122,1111122' 
COMPS,ioos:station:USF.COMPS:C10:1,2017-02-04T23:35:00Z,27.1690,-82.9260,3.0,5.8,349.28,6.85,'1111122,1111122,1111122' 
COMPS,ioos:station:USF.COMPS:C10:1,2017-02-05T00:05:00Z,27.1690,-82.9260,3.0,5.62,346.74,6.77,'1111122,1111122,1111122' 
COMPS,ioos:station:USF.COMPS:C10:1,2017-02-05T00:35:00Z,27.1690,-82.9260,3.0,6.86,348.21,8.04,'1111122,1111122,1111122' 
COMPS,ioos:station:USF.COMPS:C10:1,2017-02-05T01:05:00Z,27.1690,-82.9260,3.0,6.7,349.7,8.28,'1111122,1111122,1111122' 
COMPS,ioos:station:USF.COMPS:C10:1,2017-02-05T01:35:00Z,27.1690,-82.9260,3.0,6.75,353.48,8.63,'1111122,1111122,1111122' 
COMPS,ioos:station:USF.COMPS:C10:1,2017-02-05T02:05:00Z,27.1690,-82.9260,3.0,7.11,353.23,8.32,'1111122,1111122,1111122' 
COMPS,ioos:station:USF.COMPS:C10:1,2017-02-05T02:35:00Z,27.1690,-82.9260,3.0,6.91,353.57,8.66,'1111122,1111122,1111122' 
COMPS,ioos:station:USF.COMPS:C10:1,2017-02-05T03:05:00Z,27.1690,-82.9260,3.0,6.73,357.81,7.9,'1111122,1111122,1111122' 
COMPS,ioos:station:USF.COMPS:C10:1,2017-02-05T03:35:00Z,27.1690,-82.9260,3.0,6.34,359.04,7.63,'1111122,1111122,1111122' 
COMPS,ioos:station:USF.COMPS:C10:1,2017-02-05T08:05:00Z,27.1690,-82.9260,3.0,3.39,52.68,3.97,'1111122,1111122,1111122' 
COMPS,ioos:station:USF.COMPS:C10:1,2017-02-05T08:35:00Z,27.1690,-82.9260,3.0,4.32,39.95,5.22,'1111122,1111122,1111122' 
COMPS,ioos:station:USF.COMPS:C10:1,2017-02-05T13:05:00Z,27.1690,-82.9260,3.0,4.63,25.33,6.15,'1111122,1111122,1111122' 
COMPS,ioos:station:USF.COMPS:C10:1,2017-02-05T13:35:00Z,27.1690,-82.9260,3.0,4.24,20.26,6.49,'1111122,1111122,1111122' 
COMPS,ioos:station:USF.COMPS:C10:1,2017-02-05T14:05:00Z,27.1690,-82.9260,3.0,4.92,26.02,6.13,'1111122,1111122,1111122' 
COMPS,ioos:station:USF.COMPS:C10:1,2017-02-05T14:35:00Z,27.1690,-82.9260,3.0,4.81,13.31,6.44,'1111122,1111122,1111122' 
COMPS,ioos:station:USF.COMPS:C10:1,2017-02-05T15:05:00Z,27.1690,-82.9260,3.0,4.06,27.19,5.26,'1111122,1111122,1111122' 
COMPS,ioos:station:USF.COMPS:C10:1,2017-02-05T15:35:00Z,27.1690,-82.9260,3.0,3.41,24.62,4.54,'1111122,1111122,1111122' 
COMPS,ioos:station:USF.COMPS:C10:1,2017-02-05T16:05:00Z,27.1690,-82.9260,3.0,3.82,16.82,4.83,'1111122,1111122,1111122' 
COMPS,ioos:station:USF.COMPS:C10:1,2017-02-05T16:35:00Z,27.1690,-82.9260,3.0,3.53,7.58,4.7,'1111122,1111122,1111122' 
COMPS,ioos:station:USF.COMPS:C10:1,2017-02-05T17:05:00Z,27.1690,-82.9260,3.0,2.76,47.19,3.81,'1111122,1111122,1111122' 
COMPS,ioos:station:USF.COMPS:C10:1,2017-02-05T17:35:00Z,27.1690,-82.9260,3.0,2.7,20.28,3.93,'1111122,1111122,1111122' 
COMPS,ioos:station:USF.COMPS:C10:1,2017-02-05T18:05:00Z,27.1690,-82.9260,3.0,2.26,19.11,3.62,'1111122,1111122,1111122' 
COMPS,ioos:station:USF.COMPS:C10:1,2017-02-05T18:35:00Z,27.1690,-82.9260,3.0,2.73,353.6,3.79,'1111122,1111122,1111122' 
COMPS,ioos:station:USF.COMPS:C10:1,2017-02-05T19:05:00Z,27.1690,-82.9260,3.0,3.09,351.16,4.33,'1111122,1111122,1111122' 
COMPS,ioos:station:USF.COMPS:C10:1,2017-02-05T19:35:00Z,27.1690,-82.9260,3.0,3.37,350.31,4.7,'1111122,1111122,1111122' 
COMPS,ioos:station:USF.COMPS:C10:1,2017-02-05T20:05:00Z,27.1690,-82.9260,3.0,3.29,350.62,4.64,'1111122,1111122,1111122' 
COMPS,ioos:station:USF.COMPS:C10:1,2017-02-05T20:35:00Z,27.1690,-82.9260,3.0,4.65,348.42,6.01,'1111122,1111122,1111122' 
COMPS,ioos:station:USF.COMPS:C10:1,2017-02-05T21:05:00Z,27.1690,-82.9260,3.0,5.37,355.76,6.62,'1111122,1111122,1111122' 
COMPS,ioos:station:USF.COMPS:C10:1,2017-02-05T21:35:00Z,27.1690,-82.9260,3.0,6.66,351.01,8.24,'1111122,1111122,1111122' 
COMPS,ioos:station:USF.COMPS:C10:1,2017-02-05T22:05:00Z,27.1690,-82.9260,3.0,7.83,350.17,9.26,'1111122,1111122,1111122' 
COMPS,ioos:station:USF.COMPS:C10:1,2017-02-05T22:35:00Z,27.1690,-82.9260,3.0,8.05,348.96,9.97,'1111122,1111122,1111122' 
COMPS,ioos:station:USF.COMPS:C10:1,2017-02-06T00:05:00Z,27.1690,-82.9260,3.0,7.43,356.97,8.87,'1111122,1111122,1111122' 
COMPS,ioos:station:USF.COMPS:C10:1,2017-02-06T00:35:00Z,27.1690,-82.9260,3.0,7.02,0.37,8.32,'1111122,1111122,1111122' 
COMPS,ioos:station:USF.COMPS:C10:1,2017-02-06T08:05:00Z,27.1690,-82.9260,3.0,4.48,68.17,5.3,'1111122,1111122,1111122' 
COMPS,ioos:station:USF.COMPS:C10:1,2017-02-06T08:35:00Z,27.1690,-82.9260,3.0,4.51,77.55,5.54,'1111122,1111122,1111122' 
COMPS,ioos:station:USF.COMPS:C10:1,2017-02-06T09:05:00Z,27.1690,-82.9260,3.0,4.71,73.91,6.19,'1111122,1111122,1111122' 
COMPS,ioos:station:USF.COMPS:C10:1,2017-02-06T09:35:00Z,27.1690,-82.9260,3.0,4.72,81.33,5.67,'1111122,1111122,1111122' 
COMPS,ioos:station:USF.COMPS:C10:1,2017-02-06T11:05:00Z,27.1690,-82.9260,3.0,5.0,66.53,6.14,'1111122,1111122,1111122' 
COMPS,ioos:station:USF.COMPS:C10:1,2017-02-06T11:35:00Z,27.1690,-82.9260,3.0,4.29,74.83,5.28,'1111122,1111122,1111122' 
COMPS,ioos:station:USF.COMPS:C10:1,2017-02-06T14:05:00Z,27.1690,-82.9260,3.0,4.97,101.24,5.94,'1111122,1111122,1111122' 
COMPS,ioos:station:USF.COMPS:C10:1,2017-02-06T14:35:00Z,27.1690,-82.9260,3.0,4.68,96.25,5.73,'1111122,1111122,1111122' 
COMPS,ioos:station:USF.COMPS:C10:1,2017-02-06T16:05:00Z,27.1690,-82.9260,3.0,4.06,92.36,4.89,'1111122,1111122,1111122' 
COMPS,ioos:station:USF.COMPS:C10:1,2017-02-06T16:35:00Z,27.1690,-82.9260,3.0,3.33,97.17,4.15,'1111122,1111122,1111122' 
COMPS,ioos:station:USF.COMPS:C10:1,2017-02-06T19:05:00Z,27.1690,-82.9260,3.0,2.34,350.34,2.88,'1111122,1111122,1111122' 
COMPS,ioos:station:USF.COMPS:C10:1,2017-02-06T19:35:00Z,27.1690,-82.9260,3.0,2.64,1.72,3.08,'1111122,1111122,1111122' 
COMPS,ioos:station:USF.COMPS:C10:1,2017-02-06T20:05:00Z,27.1690,-82.9260,3.0,2.21,357.98,2.83,'1111122,1111122,1111122' 
COMPS,ioos:station:USF.COMPS:C10:1,2017-02-06T20:35:00Z,27.1690,-82.9260,3.0,2.6,351.57,2.98,'1111122,1111122,1111122' 
COMPS,ioos:station:USF.COMPS:C10:1,2017-02-06T22:05:00Z,27.1690,-82.9260,3.0,2.44,3.05,2.98,'1111122,1111122,1111122' 
COMPS,ioos:station:USF.COMPS:C10:1,2017-02-06T22:35:00Z,27.1690,-82.9260,3.0,3.2,5.74,4.07,'1111122,1111122,1111122' 
COMPS,ioos:station:USF.COMPS:C10:1,2017-02-07T00:05:00Z,27.1690,-82.9260,3.0,2.61,6.02,3.18,'1111122,1111122,1111122' 
COMPS,ioos:station:USF.COMPS:C10:1,2017-02-07T00:35:00Z,27.1690,-82.9260,3.0,2.27,5.52,2.56,'1111122,1111122,1111122' 
COMPS,ioos:station:USF.COMPS:C10:1,2017-02-07T01:05:00Z,27.1690,-82.9260,3.0,2.49,10.18,3.07,'1111122,1111122,1111122' 
COMPS,ioos:station:USF.COMPS:C10:1,2017-02-07T01:35:00Z,27.1690,-82.9260,3.0,2.87,8.98,3.37,'1111122,1111122,1111122' 
COMPS,ioos:station:USF.COMPS:C10:1,2017-02-07T04:05:00Z,27.1690,-82.9260,3.0,3.27,72.93,3.81,'1111122,1111122,1111122' 
COMPS,ioos:station:USF.COMPS:C10:1,2017-02-07T04:35:00Z,27.1690,-82.9260,3.0,4.15,84.24,4.8,'1111122,1111122,1111122' 
COMPS,ioos:station:USF.COMPS:C10:1,2017-02-07T05:05:00Z,27.1690,-82.9260,3.0,4.29,81.96,5.05,'1111122,1111122,1111122' 
COMPS,ioos:station:USF.COMPS:C10:1,2017-02-07T05:35:00Z,27.1690,-82.9260,3.0,5.08,106.19,6.43,'1111122,1111122,1111122' 
COMPS,ioos:station:USF.COMPS:C10:1,2017-02-07T06:05:00Z,27.1690,-82.9260,3.0,5.18,102.01,6.66,'1111122,1111122,1111122' 
COMPS,ioos:station:USF.COMPS:C10:1,2017-02-07T06:35:00Z,27.1690,-82.9260,3.0,5.49,100.91,6.83,'1111122,1111122,1111122' 
COMPS,ioos:station:USF.COMPS:C10:1,2017-02-07T07:05:00Z,27.1690,-82.9260,3.0,4.98,105.71,5.92,'1111122,1111122,1111122' 
COMPS,ioos:station:USF.COMPS:C10:1,2017-02-07T07:35:00Z,27.1690,-82.9260,3.0,4.96,115.33,5.92,'1111122,1111122,1111122' 
COMPS,ioos:station:USF.COMPS:C10:1,2017-02-07T08:05:00Z,27.1690,-82.9260,3.0,4.54,122.36,5.53,'1111122,1111122,1111122' 
COMPS,ioos:station:USF.COMPS:C10:1,2017-02-07T08:35:00Z,27.1690,-82.9260,3.0,4.02,126.47,4.86,'1111122,1111122,1111122' 
COMPS,ioos:station:USF.COMPS:C10:1,2017-02-07T09:05:00Z,27.1690,-82.9260,3.0,3.54,131.06,4.33,'1111122,1111122,1111122' 
COMPS,ioos:station:USF.COMPS:C10:1,2017-02-07T09:35:00Z,27.1690,-82.9260,3.0,3.5,132.47,4.07,'1111122,1111122,1111122' 
COMPS,ioos:station:USF.COMPS:C10:1,2017-02-07T10:05:00Z,27.1690,-82.9260,3.0,2.96,132.12,3.59,'1111122,1111122,1111122' 
COMPS,ioos:station:USF.COMPS:C10:1,2017-02-07T10:35:00Z,27.1690,-82.9260,3.0,3.84,123.84,4.52,'1111122,1111122,1111122' 
COMPS,ioos:station:USF.COMPS:C10:1,2017-02-07T11:05:00Z,27.1690,-82.9260,3.0,4.34,128.0,5.28,'1111122,1111122,1111122' 
COMPS,ioos:station:USF.COMPS:C10:1,2017-02-07T11:35:00Z,27.1690,-82.9260,3.0,5.15,129.2,6.33,'1111122,1111122,1111122' 
COMPS,ioos:station:USF.COMPS:C10:1,2017-02-07T12:05:00Z,27.1690,-82.9260,3.0,4.85,128.53,5.87,'1111122,1111122,1111122' 
COMPS,ioos:station:USF.COMPS:C10:1,2017-02-07T12:35:00Z,27.1690,-82.9260,3.0,4.82,130.05,5.98,'1111122,1111122,1111122' 
COMPS,ioos:station:USF.COMPS:C10:1,2017-02-07T13:05:00Z,27.1690,-82.9260,3.0,5.17,124.21,6.29,'1111122,1111122,1111122' 
COMPS,ioos:station:USF.COMPS:C10:1,2017-02-07T13:35:00Z,27.1690,-82.9260,3.0,5.98,126.49,7.22,'1111122,1111122,1111122' 
COMPS,ioos:station:USF.COMPS:C10:1,2017-02-07T14:05:00Z,27.1690,-82.9260,3.0,5.0,125.21,6.4,'1111122,1111122,1111122' 
COMPS,ioos:station:USF.COMPS:C10:1,2017-02-07T14:35:00Z,27.1690,-82.9260,3.0,4.77,128.69,5.78,'1111122,1111122,1111122' 